Regional Weather Roundup
Issued by NWS Sioux Falls, SD

Home | Current Version | Previous Version | Text Only | Print | Product List | Glossary Off
Versions: 1 2 3 4 5 6 7 8 9 10 11 12 13 14 15 16 17 18 19 20 21 22 23 24 25 26 27 28 29 30 31 32 33 34 35 36 37 38 39 40 41 42 43 44 45 46 47 48 49 50

000
ASUS43 KFSD 141202
RWRFSD

WEATHER ROUNDUP FOR SE SOUTH DAKOTA/SW MINNESOTA/NW IOWA
NATIONAL WEATHER SERVICE SIOUX FALLS SD
600 AM CST SUN FEB 14 2016

NOTE: "FAIR" INDICATES FEW OR NO CLOUDS BELOW 12,000 FEET WITH NO
SIGNIFICANT WEATHER AND OR OBSTRUCTIONS TO VISIBILITY.


SDZ038>040-050-052>070-141300-
SOUTHEAST SOUTH DAKOTA

CITY           SKY/WX    TMP DP  RH WIND       PRES   REMARKS
BROOKINGS      LGT SNOW  12   8  84 S15       29.86F FOG     WCI  -4
CHAMBERLAIN    NOT AVBL
HURON          CLOUDY    15  11  83 S14G22    29.85F WCI   0
6HR MIN TEMP:  14; 6HR MAX TEMP:  15; 6HR PCP:  0.03;

MADISON        FLURRIES  12  12 100 S10       29.85F WCI  -1
MITCHELL       CLOUDY    16  12  84 SE13      29.86F WCI   2
6HR MIN TEMP:  16; 6HR MAX TEMP:  17; 6HR PCP: TRACE;

SIOUX FALLS    CLOUDY    14   9  80 SE12      29.88F FOG     WCI   0
6HR MIN TEMP:  13; 6HR MAX TEMP:  14; 6HR PCP:  0.01;

WINNER         CLOUDY    39  32  76 W21       29.81R
YANKTON        CLOUDY    18  12  79 SE10      29.86R WCI   6
$$

MNZ071-072-080-081-089-090-097-098-141300-
SOUTHWEST MINNESOTA

CITY           SKY/WX    TMP DP  RH WIND       PRES   REMARKS
FAIRMONT       CLOUDY    14   9  79 SE18      29.98F WCI  -3
JACKSON        LGT SNOW  14  10  85 SE16      29.96F VSB 1   WCI  -2
LUVERNE        CLOUDY    16  12  86 SE12G18   29.90F WCI   3
MARSHALL       FLURRIES  14   9  80 S18       29.94F WCI  -3
6HR MIN TEMP:  11; 6HR MAX TEMP:  14; 6HR PCP: TRACE;

MONTEVIDEO     LGT SNOW  12  10  92 S13       29.99F WCI  -3
PIPESTONE      LGT SNOW  14   5  67 S15       29.87F WCI  -1
REDWOOD FALLS  LGT SNOW  13   9  84 SE17      29.99F FOG     WCI  -4
TRACY          FLURRIES  15  11  84 S16       29.94S WCI  -1
WINDOM         LGT SNOW  12  10  92 SE16G23   29.95F VSB 1   WCI  -4
WORTHINGTON    CLOUDY    12   7  79 SE16      29.92F WCI  -4
$$

IAZ001>003-012>014-020>022-031-032-NEZ013-014-SDZ071-141300-
NORTHWEST IOWA

CITY           SKY/WX    TMP DP  RH WIND       PRES   REMARKS
ESTHERVILLE    FOG       12  11  95 SE28      29.96F VSB 1/4 WCI  -9
SIOUX CITY     FLURRIES  19  11  70 SE14      29.91F WCI   6
6HR MIN TEMP:  18; 6HR MAX TEMP:  19; 6HR PCP: TRACE;

SPENCER        LGT SNOW  13   8  81 SE17      29.95F VSB 1   WCI  -4
6HR MIN TEMP:  11; 6HR MAX TEMP:  13; 6HR PCP: TRACE;

STORM LAKE     CLOUDY    14  12  92 SE20G26   29.92F WCI  -3
$$

ABBREVIATIONS USED IN REMARKS
   TC - TEMPERATURE IN CELSIUS
  WCI - WIND CHILL INDEX
   HX - HEAT INDEX
  VSB - VISIBILITY




USA.gov is the U.S. government's official web portal to all federal, state and local government web resources and services.